Amsterdam, Netherlands

9:49 PM CET on December 05, 2019 (GMT +0100)
Schiphol

Weather History for EHAM - October, 2019

Change the Weather History Date:

Wednesday, October 9, 2019

  Actual Average Record
Temperature  
Mean Temperature 54 °F -  
Max Temperature 57 °F 54 °F 66 °F (1997)
Min Temperature 50 °F 43 °F 37 °F (1998)
Degree Days  
Heating Degree Days 12    
Growing Degree Days 4 (Base 50)    
Moisture  
Dew Point 48 °F    
Average Humidity 82    
Maximum Humidity 94    
Minimum Humidity 62    
Precipitation  
Precipitation 0.51 in - - ()
Sea Level Pressure  
Sea Level Pressure 29.65 in    
Wind  
Wind Speed 13 mph ()    
Max Wind Speed 21 mph    
Max Gust Speed 31 mph    
Visibility 7.1 miles    
Events Rain , Thunderstorm    
Averages and records for this station are not official NWS values.
T = Trace of Precipitation, MM = Missing Value Source: Averaged Metar Reports

Daily Weather History Graph

Daily Weather History Graph

Search for Another Location

Airport or City:

Astronomy

Oct. 09, 2019 Rise Set
Actual Time 7:54 AM CEST 7:00 PM CEST
Civil Twilight 7:20 AM CEST 7:34 PM CEST
Nautical Twilight 6:41 AM CEST 8:13 PM CEST
Astronomical Twilight 6:01 AM CEST 8:53 PM CEST
Moon 6:04 PM CEST (10/9) 2:40 AM CEST (10/9)
Length of Visible Light 12h 13m
Length of Day
11h 05m
Waxing Gibbous, 83% of the Moon is Illuminated
Oct 9
Waxing Gibbous
Oct 13
Full
Oct 21
Last Quarter
Oct 28
New
Nov 4
First Quarter

Hourly Weather History & Observations

Time (CEST) Temp. Dew Point Humidity Pressure Visibility Wind Dir Wind Speed Gust Speed Precip Events Conditions
12:00 AM 53 °F 50 °F 87% 29.67 in 15 mi SSW 11.2 mph - -   Partly Cloudy
12:25 AM 53.6 °F 50.0 °F 88% 29.65 in 6.2 mi SW 12.7 mph - N/A   Partly Cloudy
12:55 AM 55.4 °F 48.2 °F 77% 29.65 in 6.2 mi WSW 16.1 mph - N/A   Partly Cloudy
1:00 AM 56 °F 49 °F 70% 29.68 in 13 mi WSW 15.7 mph - - Rain Rain
1:25 AM 55.4 °F 48.2 °F 77% 29.65 in 6.2 mi WSW 17.3 mph - N/A   Partly Cloudy
1:55 AM 57.2 °F 48.2 °F 72% 29.68 in 6.2 mi WSW 15.0 mph - N/A   Partly Cloudy
2:00 AM 56 °F 47 °F 65% 29.68 in 16 mi WSW 15.7 mph - -   Partly Cloudy
2:25 AM 55.4 °F 48.2 °F 77% 29.68 in 6.2 mi WSW 16.1 mph - N/A   Partly Cloudy
2:55 AM 55.4 °F 48.2 °F 77% 29.68 in 6.2 mi WSW 13.8 mph - N/A   Partly Cloudy
3:00 AM 55 °F 47 °F 68% 29.69 in 14 mi WSW 13.4 mph - -   Partly Cloudy
3:25 AM 53.6 °F 48.2 °F 82% 29.68 in 6.2 mi West 13.8 mph - N/A   Partly Cloudy
3:55 AM 55.4 °F 48.2 °F 77% 29.68 in 6.2 mi WSW 11.5 mph - N/A   Partly Cloudy
4:25 AM 55.4 °F 46.4 °F 72% 29.68 in 6.2 mi WSW 12.7 mph - N/A   Partly Cloudy
4:55 AM 55.4 °F 46.4 °F 72% 29.68 in 6.2 mi WSW 10.4 mph - N/A   Partly Cloudy
5:25 AM 51.8 °F 46.4 °F 82% 29.68 in 6.2 mi SSW 10.4 mph - N/A   Partly Cloudy
5:55 AM 51.8 °F 48.2 °F 88% 29.68 in 6.2 mi South 11.5 mph - N/A   Partly Cloudy
6:00 AM 51 °F 49 °F 88% 29.68 in 12 mi South 11.2 mph - -   Partly Cloudy
6:25 AM 51.8 °F 48.2 °F 88% 29.68 in 6.2 mi South 11.5 mph - N/A   Partly Cloudy
6:55 AM 51.8 °F 48.2 °F 88% 29.68 in 6.2 mi South 10.4 mph - N/A   Partly Cloudy
7:00 AM 52 °F 49 °F 85% 29.68 in 11 mi South 11.2 mph - -   Partly Cloudy
7:25 AM 51.8 °F 50.0 °F 94% 29.65 in 6.2 mi South 15.0 mph - N/A   Scattered Clouds
7:55 AM 51.8 °F 48.2 °F 88% 29.65 in 6.2 mi SSW 15.0 mph - N/A   Scattered Clouds
8:25 AM 51.8 °F 48.2 °F 88% 29.65 in 6.2 mi South 12.7 mph - N/A   Partly Cloudy
8:55 AM 53.6 °F 50.0 °F 88% 29.65 in 6.2 mi SSW 17.3 mph - N/A   Partly Cloudy
9:00 AM 53 °F 50 °F 86% 29.66 in 11 mi South 15.7 mph - - Rain Rain
9:25 AM 53.6 °F 50.0 °F 88% 29.65 in 6.2 mi South 17.3 mph - N/A   Partly Cloudy
9:55 AM 53.6 °F 50.0 °F 88% 29.65 in 6.2 mi SSW 19.6 mph - N/A   Partly Cloudy
10:00 AM 54 °F 50 °F 83% 29.65 in 13 mi SSW 17.9 mph - -   Partly Cloudy
10:25 AM 55.4 °F 51.8 °F 88% 29.65 in 6.2 mi SSW 17.3 mph - N/A   Partly Cloudy
10:55 AM 55.4 °F 50.0 °F 82% 29.65 in 6.2 mi SSW 20.7 mph - N/A   Partly Cloudy
11:00 AM 55 °F 51 °F 80% 29.65 in 14 mi SSW 20.1 mph - -   Partly Cloudy
11:25 AM 55.4 °F 50.0 °F 82% 29.62 in 6.2 mi SSW 18.4 mph - N/A   Partly Cloudy
11:55 AM 55.4 °F 50.0 °F 82% 29.62 in 6.2 mi SSW 18.4 mph - N/A   Partly Cloudy
12:00 PM 55 °F 49 °F 74% 29.64 in 22 mi SSW 17.9 mph - -   Partly Cloudy
12:25 PM 55.4 °F 48.2 °F 77% 29.62 in 6.2 mi SSW 18.4 mph - N/A   Partly Cloudy
12:55 PM 55.4 °F 46.4 °F 72% 29.62 in 6.2 mi SSW 17.3 mph - N/A   Partly Cloudy
1:25 PM 55.4 °F 46.4 °F 72% 29.62 in 6.2 mi SSW 18.4 mph - N/A Rain Light Rain Showers
1:55 PM 55.4 °F 48.2 °F 77% 29.62 in 5.6 mi SW 19.6 mph - N/A Rain Light Rain Showers
2:00 PM 54 °F 49 °F 76% 29.63 in 16 mi SW 17.9 mph - - Rain Heavy Rain
2:25 PM 53.6 °F 48.2 °F 82% 29.62 in 6.2 mi WSW 13.8 mph - N/A Rain Light Rain Showers
2:55 PM 55.4 °F 50.0 °F 82% 29.62 in 6.2 mi WSW 9.2 mph - N/A Rain Light Rain Showers
3:25 PM 53.6 °F 48.2 °F 82% 29.62 in 6.2 mi SW 8.1 mph - N/A Rain Light Rain Showers
3:55 PM 51.8 °F 50.0 °F 94% 29.62 in 4.3 mi SW 17.3 mph - N/A Rain Rain Showers
4:25 PM 51.8 °F 48.2 °F 88% 29.62 in 3.7 mi SSW 17.3 mph 31.1 mph N/A Rain Rain Showers
4:55 PM 51.8 °F 48.2 °F 88% 29.62 in 4.3 mi SW 16.1 mph - N/A Rain Rain Showers
5:00 PM 51 °F 49 °F 88% 29.64 in 4 mi WSW 15.7 mph - - Rain Heavy Rain
5:25 PM 51.8 °F 50.0 °F 94% 29.62 in 4.3 mi WSW 9.2 mph - N/A Rain Light Rain Showers
5:55 PM 51.8 °F 50.0 °F 94% 29.62 in 5.0 mi SSW 6.9 mph - N/A Rain Light Rain Showers
6:25 PM 51.8 °F 50.0 °F 94% 29.62 in 6.2 mi South 9.2 mph - N/A Rain Light Rain Showers
6:55 PM 53.6 °F 50.0 °F 88% 29.62 in 3.7 mi SSW 12.7 mph - N/A Rain Rain Showers
7:00 PM 53 °F 50 °F 87% 29.64 in 6 mi West 11.2 mph - - Rain Rain Showers
7:25 PM 51.8 °F 48.2 °F 88% 29.62 in 6.2 mi SW 10.4 mph - N/A   Scattered Clouds
7:55 PM 50.0 °F 46.4 °F 87% 29.62 in 6.2 mi SSW 6.9 mph - N/A Thunderstorm Partly Cloudy
8:00 PM 50 °F 47 °F 87% 29.64 in 22 mi South 8.9 mph - - Thunderstorm Light Thunderstorm
8:25 PM 51.8 °F 46.4 °F 82% 29.65 in 6.2 mi West 15.0 mph - N/A Rain , Thunderstorm Light Thunderstorms and Rain
8:55 PM 51.8 °F 46.4 °F 82% 29.65 in 6.2 mi SW 9.2 mph - N/A   Partly Cloudy
9:00 PM 52 °F 47 °F 78% 29.66 in 22 mi SW 8.9 mph - - Rain Rain
9:25 PM 51.8 °F 46.4 °F 82% 29.65 in 6.2 mi SW 9.2 mph - N/A Thunderstorm Thunderstorm
9:55 PM 51.8 °F 46.4 °F 82% 29.65 in 6.2 mi West 9.2 mph - N/A   Partly Cloudy
10:25 PM 51.8 °F 46.4 °F 82% 29.65 in 6.2 mi SW 8.1 mph - N/A   Partly Cloudy
10:55 PM 50.0 °F 42.8 °F 76% 29.65 in 3.1 mi WSW 16.1 mph 27.6 mph N/A Rain Light Rain Showers
11:00 PM 51 °F 42 °F 62% 29.65 in 7 mi West 15.7 mph - - Rain Rain Showers
11:25 PM 51.8 °F 46.4 °F 82% 29.65 in 6.2 mi West 10.4 mph - N/A   Partly Cloudy
11:55 PM 51.8 °F 46.4 °F 82% 29.65 in 6.2 mi WSW 9.2 mph - N/A   Partly Cloudy